FW1095 Weather Reports


Display with metric or nautical units.
time (UTC)temp
F
wind
direction
speed
MPH
gust
MPH
rain 1hr
in
rain 24hr
in
rain mn
in
humidity
%
barometer
mb
20260509091503 50 157 10.0 18.0 0.00 0.00 0.00 48 999.0
20260509091035 50 176 7.0 13.0 0.00 0.00 0.00 49 1000.3
20260509090513 50 185 7.0 14.0 0.00 0.00 0.00 48 1000.3
20260509090024 50 149 9.0 14.0 0.00 0.00 0.00 49 1000.3
20260509090005 50 161 9.0 15.0 0.00 0.00 0.00 48 999.6
20260509085513 50 137 8.0 13.0 0.00 0.00 0.00 49 1000.3
20260509084513 50 157 7.0 13.0 0.00 0.00 0.00 49 1000.5
20260509084506 50 141 7.0 16.0 0.00 0.00 0.00 48 999.7
20260509084024 50 155 7.0 11.0 0.00 0.00 0.00 49 1000.6
20260509083547 50 178 7.0 16.0 0.00 0.00 0.00 49 1000.6
20260509083012 50 157 9.0 16.0 0.00 0.00 0.00 49 999.5
20260509082513 50 167 8.0 11.0 0.00 0.00 0.00 50 1000.9
20260509082013 50 178 6.0 10.0 0.00 0.00 0.00 50 1000.9
20260509081524 50 161 7.0 11.0 0.00 0.00 0.00 50 1001.0
20260509081518 50 177 7.0 13.0 0.00 0.00 0.00 50 999.7
20260509081013 50 137 7.0 10.0 0.00 0.00 0.00 50 1000.9
20260509080513 50 171 7.0 11.0 0.00 0.00 0.00 50 1001.1
20260509080013 50 144 6.0 12.0 0.00 0.00 0.00 51 1001.2
20260509080004 50 164 6.0 14.0 0.00 0.00 0.00 50 1000.0
20260509075513 50 156 7.0 11.0 0.00 0.00 0.00 50 1001.2
20260509075035 49 153 6.0 11.0 0.00 0.00 0.00 52 1001.4
20260509074513 49 153 8.0 11.0 0.00 0.00 0.00 53 1001.5
20260509074505 49 167 8.0 13.0 0.00 0.00 0.00 52 1000.3
20260509074013 49 157 6.0 10.0 0.00 0.00 0.00 54 1001.5
20260509073524 49 155 6.0 9.0 0.00 0.00 0.00 54 1001.6
20260509073013 49 160 6.0 10.0 0.00 0.00 0.00 55 1001.7
20260509073010 49 144 6.0 12.0 0.00 0.00 0.00 54 1000.9
20260509071515 48 178 5.0 10.0 0.00 0.00 0.00 56 1001.2
20260509071513 48 173 5.0 10.0 0.00 0.00 0.00 56 1002.1
20260509071013 48 179 6.0 10.0 0.00 0.00 0.00 56 1002.2
20260509070513 48 209 6.0 10.0 0.00 0.00 0.00 57 1002.3
20260509070022 47 167 4.0 9.0 0.00 0.00 0.00 59 1000.8
20260509070013 47 152 4.0 8.0 0.00 0.00 0.00 59 1002.2
20260509065535 47 164 5.0 8.0 0.00 0.00 0.00 61 1002.3
20260509065013 46 128 5.0 7.0 0.00 0.00 0.00 64 1002.3
20260509064513 45 123 5.0 7.0 0.00 0.00 0.00 67 1002.4
20260509064504 45 123 4.0 7.0 0.00 0.00 0.00 67 1001.1
20260509064035 46 111 4.0 5.0 0.00 0.00 0.00 68 1002.5
20260509063524 46 111 4.0 7.0 0.00 0.00 0.00 67 1002.6
20260509063013 46 122 5.0 7.0 0.00 0.00 0.00 65 1002.8
20260509063007 46 121 4.0 8.0 0.00 0.00 0.00 65 1001.6
20260509062514 46 101 4.0 8.0 0.00 0.00 0.00 65 1002.9
20260509062013 46 119 6.0 8.0 0.00 0.00 0.00 65 1003.1
20260509061515 46 126 3.0 6.0 0.00 0.00 0.00 65 1002.3
20260509061513 46 126 3.0 5.0 0.00 0.00 0.00 65 1003.2
20260509061013 46 126 3.0 4.0 0.00 0.00 0.00 66 1003.4
20260509060513 45 111 2.0 3.0 0.00 0.00 0.00 68 1003.3
20260509060026 45 111 1.0 2.0 0.00 0.00 0.00 72 1003.4
20260509060016 45 111 0.0 2.0 0.00 0.00 0.00 71 1002.8
20260509055524 45 111 1.0 2.0 0.00 0.00 0.00 69 1003.4
20260509055014 45 111 1.0 3.0 0.00 0.00 0.00 69 1003.6
20260509054524 45 111 2.0 3.0 0.00 0.00 0.00 68 1003.6
20260509054013 45 111 2.0 3.0 0.00 0.00 0.00 68 1003.7
20260509053535 45 111 1.0 4.0 0.00 0.00 0.00 69 1003.7
20260509053024 45 111 2.0 4.0 0.00 0.00 0.00 68 1002.7
20260509053013 45 111 2.0 4.0 0.00 0.00 0.00 68 1003.8
20260509052547 44 111 3.0 4.0 0.00 0.00 0.00 69 1003.9
20260509052013 45 53 2.0 5.0 0.00 0.00 0.00 70 1003.9
20260509051514 45 53 3.0 5.0 0.00 0.00 0.00 69 1004.0
20260509051512 45 53 3.0 5.0 0.00 0.00 0.00 68 1002.8
20260509050513 47 126 1.0 4.0 0.00 0.00 0.00 65 1004.0
20260509050025 47 126 2.0 4.0 0.00 0.00 0.00 58 1004.1
20260509050004 47 126 1.0 4.0 0.00 0.00 0.00 58 1002.9
20260509045513 47 133 3.0 4.0 0.00 0.00 0.00 58 1004.1
20260509045025 47 133 2.0 6.0 0.00 0.00 0.00 58 1004.1
20260509044513 48 141 3.0 8.0 0.00 0.00 0.00 58 1004.1
20260509044502 48 141 3.0 9.0 0.00 0.00 0.00 57 1003.2
20260509044024 48 146 5.0 8.0 0.00 0.00 0.00 58 1004.2
20260509043513 47 145 4.0 8.0 0.00 0.00 0.00 58 1004.2
20260509043014 48 143 5.0 9.0 0.00 0.00 0.00 58 1004.3
20260509043002 48 135 4.0 10.0 0.00 0.00 0.00 57 1003.6
20260509042547 48 139 5.0 10.0 0.00 0.00 0.00 58 1004.4
20260509042013 48 161 6.0 10.0 0.00 0.00 0.00 57 1004.5
20260509041536 47 130 7.0 10.0 0.00 0.00 0.00 57 1004.5
20260509041503 47 132 7.0 11.0 0.00 0.00 0.00 57 1003.4
20260509041024 47 147 7.0 10.0 0.00 0.00 0.00 57 1004.6
20260509040514 47 138 6.0 9.0 0.00 0.00 0.00 57 1004.5
20260509040014 47 137 6.0 11.0 0.00 0.00 0.00 58 1004.7
20260509040004 47 128 6.0 12.0 0.00 0.00 0.00 57 1003.5
20260509035525 47 159 7.0 11.0 0.00 0.00 0.00 57 1004.7
20260509035013 47 121 5.0 8.0 0.00 0.00 0.00 58 1004.8
20260509034524 47 142 6.0 8.0 0.00 0.00 0.00 58 1004.9
20260509034503 47 130 5.0 9.0 0.00 0.00 0.00 57 1003.8
20260509034013 47 135 6.0 8.0 0.00 0.00 0.00 57 1004.9
20260509033524 47 136 5.0 9.0 0.00 0.00 0.00 57 1005.0
20260509033036 47 142 5.0 9.0 0.00 0.00 0.00 56 1005.0
20260509033003 48 128 5.0 9.0 0.00 0.00 0.00 56 1004.0
20260509032013 47 173 4.0 9.0 0.00 0.00 0.00 57 1005.2
20260509031525 47 119 5.0 8.0 0.00 0.00 0.00 57 1005.2
20260509031509 47 129 4.0 9.0 0.00 0.00 0.00 57 1004.4
20260509031013 47 122 5.0 8.0 0.00 0.00 0.00 58 1005.3
20260509030525 47 138 6.0 9.0 0.00 0.00 0.00 58 1005.3
20260509030013 47 148 5.0 9.0 0.00 0.00 0.00 59 1005.4
20260509030003 47 134 4.0 10.0 0.00 0.00 0.00 59 1004.8
20260509025525 47 161 5.0 9.0 0.00 0.00 0.00 59 1005.5
20260509024502 47 119 5.0 10.0 0.00 0.00 0.00 58 1004.6
20260509024024 47 98 6.0 9.0 0.00 0.00 0.00 59 1005.5
20260509023524 47 123 6.0 9.0 0.00 0.00 0.00 59 1005.6
20260509023036 47 146 5.0 9.0 0.00 0.00 0.00 60 1005.7
20260509023003 47 148 5.0 10.0 0.00 0.00 0.00 59 1004.5
20260509022535 46 118 4.0 7.0 0.00 0.00 0.00 61 1005.8
20260509022013 46 137 4.0 6.0 0.00 0.00 0.00 62 1005.7
20260509021513 46 148 3.0 6.0 0.00 0.00 0.00 62 1005.8
20260509021505 46 150 2.0 7.0 0.00 0.00 0.00 62 1004.5
20260509021014 46 136 4.0 6.0 0.00 0.00 0.00 62 1005.8
20260509020547 46 126 4.0 6.0 0.00 0.00 0.00 62 1005.7
20260509020025 46 138 4.0 6.0 0.00 0.00 0.00 61 1005.8
20260509020003 46 124 4.0 7.0 0.00 0.00 0.00 61 1004.8
20260509015524 46 121 4.0 7.0 0.00 0.00 0.00 61 1005.8
20260509015036 46 107 4.0 7.0 0.00 0.00 0.00 60 1005.7
20260509014513 46 124 4.0 7.0 0.00 0.00 0.00 60 1005.7
20260509014507 46 125 4.0 7.0 0.00 0.00 0.00 59 1005.0
20260509014015 46 117 4.0 6.0 0.00 0.00 0.00 60 1005.7
20260509013513 46 120 4.0 6.0 0.00 0.00 0.00 59 1005.8
20260509013013 46 117 4.0 6.0 0.00 0.00 0.00 59 1005.7
20260509013005 46 117 4.0 7.0 0.00 0.00 0.00 59 1004.9
20260509012513 47 107 4.0 7.0 0.00 0.00 0.00 59 1005.7
20260509012036 47 111 3.0 5.0 0.00 0.00 0.00 59 1005.6
20260509011525 47 119 4.0 5.0 0.00 0.00 0.00 59 1005.6
20260509011505 47 120 3.0 6.0 0.00 0.00 0.00 59 1004.3
20260509011024 47 108 4.0 5.0 0.00 0.00 0.00 60 1005.6
20260509010513 47 108 4.0 5.0 0.00 0.00 0.00 60 1005.6
20260509010025 47 108 4.0 5.0 0.00 0.00 0.00 61 1005.5
20260509010003 47 108 3.0 6.0 0.00 0.00 0.00 61 1004.3
20260509005514 46 108 3.0 4.0 0.00 0.00 0.00 62 1005.5
20260509005046 47 108 2.0 5.0 0.00 0.00 0.00 63 1005.5
20260509004524 47 108 3.0 5.0 0.00 0.00 0.00 63 1005.4
20260509004503 47 108 2.0 6.0 0.00 0.00 0.00 62 1004.4
20260509004025 46 108 3.0 5.0 0.00 0.00 0.00 64 1005.5
20260509003547 46 95 2.0 6.0 0.00 0.00 0.00 70 1005.5
20260509003047 46 95 3.0 6.0 0.00 0.00 0.00 68 1005.5
20260509003003 46 95 3.0 6.0 0.00 0.00 0.00 67 1004.4
20260509002536 45 110 3.0 5.0 0.00 0.00 0.00 70 1005.4
20260509002014 44 106 3.0 5.0 0.00 0.00 0.00 79 1005.4
20260509001514 42 117 2.0 4.0 0.00 0.00 0.00 87 1005.4
20260509001504 42 123 1.0 4.0 0.00 0.00 0.00 87 1004.7
20260509001013 42 92 2.0 6.0 0.00 0.00 0.00 89 1005.4
20260509000514 41 92 3.0 8.0 0.00 0.00 0.00 89 1005.4
20260509000047 41 92 6.0 8.0 0.00 0.00 0.00 89 1005.5
20260509000004 41 92 4.0 8.0 0.00 0.00 0.00 88 1004.8
20260508235525 40 84 7.0 8.0 0.00 0.00 0.00 89 1005.5
20260508235013 40 67 5.0 8.0 0.00 0.00 0.00 90 1005.6
20260508234524 40 76 5.0 9.0 0.00 0.00 0.00 90 1005.6
20260508234504 40 76 4.0 9.0 0.00 0.00 0.00 89 1004.4
20260508234047 40 80 6.0 9.0 0.00 0.00 0.00 90 1005.6
20260508233525 40 76 5.0 8.0 0.00 0.00 0.00 89 1005.8
20260508233013 40 78 5.0 8.0 0.00 0.00 0.00 89 1005.8
20260508233005 40 78 5.0 8.0 0.00 0.00 0.00 89 1004.6
20260508232524 40 76 6.0 7.0 0.00 0.00 0.00 89 1005.7
20260508232013 40 85 5.0 8.0 0.00 0.00 0.00 89 1005.8
20260508231525 40 79 7.0 8.0 0.00 0.00 0.00 88 1005.8
20260508231503 40 79 6.0 9.0 0.00 0.00 0.00 88 1004.7
20260508231014 40 75 6.0 10.0 0.00 0.00 0.00 88 1005.8
20260508230514 40 80 7.0 11.0 0.00 0.00 0.00 88 1005.8
20260508230014 40 81 9.0 11.0 0.00 0.00 0.00 87 1005.8
20260508230003 40 72 8.0 11.0 0.00 0.00 0.00 86 1004.9
20260508225515 40 72 8.0 10.0 0.00 0.00 0.00 87 1005.9
20260508225014 40 74 8.0 10.0 0.00 0.00 0.00 87 1005.9
20260508224503 40 76 7.0 10.0 0.00 0.00 0.00 86 1005.1
20260508224014 40 76 8.0 10.0 0.00 0.00 0.00 86 1006.0
20260508223514 40 79 7.0 10.0 0.00 0.00 0.00 86 1006.0
20260508223047 40 69 8.0 12.0 0.00 0.00 0.00 85 1006.0
20260508223007 40 63 8.0 12.0 0.00 0.00 0.00 85 1005.5
20260508222514 40 79 9.0 14.0 0.00 0.00 0.00 85 1006.1
20260508222024 40 65 11.0 14.0 0.00 0.00 0.00 85 1006.0
20260508221504 40 70 10.0 13.0 0.00 0.00 0.00 84 1005.3
20260508221025 40 59 8.0 11.0 0.00 0.00 0.00 84 1006.1
20260508220536 41 68 9.0 11.0 0.00 0.00 0.00 85 1006.0
20260508220025 41 63 9.0 11.0 0.00 0.00 0.00 85 1006.1
20260508220020 41 68 9.0 12.0 0.00 0.00 0.00 85 1005.0
20260508215536 40 67 10.0 12.0 0.00 0.00 0.00 85 1006.2
20260508215025 40 64 10.0 11.0 0.00 0.00 0.00 85 1006.2
20260508214514 40 57 9.0 11.0 0.00 0.00 0.00 84 1006.1
20260508214504 40 62 8.0 12.0 0.00 0.00 0.00 83 1005.2
20260508214025 41 61 9.0 11.0 0.00 0.00 0.00 83 1006.2
20260508213525 41 61 10.0 11.0 0.00 0.00 0.00 83 1006.1
20260508213013 41 67 9.0 12.0 0.00 0.00 0.00 82 1006.2
20260508213009 41 69 8.0 12.0 0.00 0.00 0.00 82 1005.1
20260508212514 41 69 10.0 12.0 0.00 0.00 0.00 81 1006.2
20260508211514 41 61 7.0 9.0 0.00 0.00 0.00 81 1006.2
20260508211505 41 65 6.0 9.0 0.00 0.00 0.00 80 1005.2
20260508210014 42 59 7.0 10.0 0.00 0.00 0.00 79 1006.3
20260508210008 42 67 6.0 10.0 0.00 0.00 0.00 78 1005.4
20260508205514 42 40 8.0 10.0 0.00 0.00 0.00 79 1006.3
20260508205047 42 38 6.0 12.0 0.00 0.00 0.00 80 1006.5
20260508204525 41 49 10.0 12.0 0.00 0.00 0.00 80 1006.4
20260508204508 41 57 10.0 12.0 0.00 0.00 0.00 79 1005.5
20260508204036 41 60 10.0 12.0 0.00 0.00 0.00 79 1006.4
20260508203514 41 54 6.0 15.0 0.00 0.00 0.00 79 1006.3
20260508203014 41 65 13.0 15.0 0.00 0.00 0.00 79 1006.2
20260508203004 41 64 12.0 15.0 0.00 0.00 0.00 78 1005.7
20260508202514 41 64 11.0 14.0 0.00 0.00 0.00 80 1006.2
20260508202014 41 64 11.0 14.0 0.00 0.00 0.00 81 1006.2
20260508201515 41 49 8.0 15.0 0.00 0.00 0.00 83 1006.2
20260508201509 41 61 7.0 15.0 0.00 0.00 0.00 82 1005.6
20260508201015 41 61 11.0 15.0 0.00 0.00 0.00 82 1006.3
20260508200514 41 66 12.0 14.0 0.00 0.00 0.00 81 1006.3
20260508200040 41 55 11.0 14.0 0.00 0.00 0.00 80 1006.3
20260508200003 41 62 11.0 15.0 0.00 0.00 0.00 80 1005.2
20260508195514 41 56 10.0 16.0 0.00 0.00 0.00 80 1006.6
20260508195036 41 68 14.0 16.0 0.00 0.00 0.00 78 1006.4
20260508194514 41 69 12.0 15.0 0.00 0.00 0.00 79 1006.5
20260508194503 41 65 11.0 16.0 0.00 0.00 0.00 78 1005.4
20260508194047 41 63 12.0 16.0 0.00 0.00 0.00 78 1006.7
20260508193537 41 65 14.0 15.0 0.00 0.00 0.00 78 1006.6
20260508193014 41 64 13.0 15.0 0.00 0.00 0.00 79 1006.8
20260508193004 41 65 12.0 15.0 0.00 0.00 0.00 78 1005.7
20260508192514 41 63 12.0 15.0 0.00 0.00 0.00 79 1006.8
20260508192025 41 67 10.0 12.0 0.00 0.00 0.00 79 1006.8
20260508191515 41 72 9.0 14.0 0.00 0.00 0.00 80 1006.0
20260508190536 41 65 10.0 13.0 0.00 0.00 0.00 79 1007.1
20260508190014 41 56 11.0 14.0 0.00 0.00 0.00 79 1007.0
20260508190003 41 51 11.0 15.0 0.00 0.00 0.00 79 1006.1
20260508185014 41 57 11.0 14.0 0.00 0.00 0.00 78 1007.2
20260508184514 41 68 12.0 14.0 0.00 0.00 0.00 79 1007.1
20260508184505 41 42 12.0 15.0 0.00 0.00 0.00 79 1006.3
20260508184025 41 55 12.0 14.0 0.00 0.00 0.00 80 1007.3
20260508183514 40 69 12.0 14.0 0.00 0.00 0.00 81 1007.3
20260508183014 41 69 11.0 13.0 0.00 0.00 0.00 80 1007.3
20260508183007 41 59 11.0 15.0 0.00 0.00 0.00 80 1006.7
20260508182525 41 53 11.0 15.0 0.00 0.00 0.00 80 1007.5
20260508182025 41 60 12.0 15.0 0.00 0.00 0.00 80 1007.5
20260508181504 41 64 11.0 15.0 0.00 0.00 0.00 79 1007.2
20260508180014 40 73 15.0 17.0 0.00 0.00 0.00 79 1007.7
20260508180010 40 71 14.0 17.0 0.00 0.00 0.00 79 1007.3
20260508175525 40 75 14.0 16.0 0.00 0.00 0.00 79 1007.8
20260508175014 40 73 14.0 15.0 0.00 0.00 0.00 79 1007.8
20260508174537 40 63 12.0 16.0 0.00 0.00 0.00 80 1008.0
20260508174502 40 67 12.0 16.0 0.00 0.00 0.00 80 1007.5
20260508173014 40 79 12.0 15.0 0.00 0.00 0.00 80 1008.1
20260508173003 40 80 12.0 15.0 0.00 0.00 0.00 79 1006.8
20260508172014 41 57 11.0 12.0 0.00 0.00 0.00 80 1008.2
20260508171515 41 66 9.0 12.0 0.00 0.00 0.00 79 1008.3
20260508171504 41 65 9.0 12.0 0.00 0.00 0.00 79 1007.1
20260508171014 41 63 10.0 11.0 0.00 0.00 0.00 80 1008.2
20260508170514 40 73 11.0 12.0 0.00 0.00 0.00 81 1008.4
20260508170014 40 69 8.0 11.0 0.00 0.00 0.00 82 1008.4
20260508170004 40 78 8.0 11.0 0.00 0.00 0.00 80 1007.2
20260508165514 40 82 9.0 10.0 0.00 0.00 0.00 80 1008.4
20260508165014 40 63 7.0 11.0 0.00 0.00 0.00 81 1008.4
20260508164525 40 73 9.0 11.0 0.00 0.00 0.00 83 1008.4
20260508164510 39 74 9.0 11.0 0.00 0.00 0.00 82 1007.3
20260508164025 39 76 6.0 8.0 0.00 0.00 0.00 83 1008.6
20260508163548 39 74 6.0 9.0 0.00 0.00 0.00 83 1008.4
20260508163037 39 63 9.0 9.0 0.00 0.00 0.00 82 1008.4
20260508163003 39 63 8.0 10.0 0.00 0.00 0.00 81 1007.2
20260508162514 39 69 6.0 8.0 0.00 0.00 0.00 82 1008.4
20260508161537 40 68 7.0 10.0 0.00 0.00 0.00 81 1008.5
20260508161503 40 65 6.0 10.0 0.00 0.00 0.00 80 1007.2
20260508161014 40 88 8.0 10.0 0.00 0.00 0.00 80 1008.5
20260508160514 40 61 7.0 10.0 0.00 0.00 0.00 80 1008.6
20260508160014 40 62 8.0 10.0 0.00 0.00 0.00 78 1008.5
20260508160004 40 74 8.0 10.0 0.00 0.00 0.00 78 1007.4
20260508155514 40 91 6.0 8.0 0.00 0.00 0.00 79 1008.6
20260508155014 40 72 6.0 7.0 0.00 0.00 0.00 79 1008.8
20260508154525 40 37 4.0 10.0 0.00 0.00 0.00 79 1008.8
20260508154507 40 37 4.0 11.0 0.00 0.00 0.00 79 1007.6
20260508154037 40 30 8.0 10.0 0.00 0.00 0.00 77 1008.7
20260508153515 40 63 6.0 7.0 0.00 0.00 0.00 78 1008.8
20260508153025 40 36 4.0 7.0 0.00 0.00 0.00 79 1009.0
20260508153016 40 36 3.0 6.0 0.00 0.00 0.00 78 1007.8
20260508152025 40 32 3.0 6.0 0.00 0.00 0.00 79 1009.1
20260508151515 40 22 4.0 6.0 0.00 0.00 0.00 78 1009.0
20260508151503 40 22 4.0 8.0 0.00 0.00 0.00 77 1008.0
20260508151014 40 28 4.0 7.0 0.00 0.00 0.00 79 1009.0
20260508150525 40 31 5.0 7.0 0.00 0.00 0.00 77 1009.0
20260508150004 40 33 3.0 6.0 0.00 0.00 0.00 78 1008.1
20260508145547 40 30 4.0 6.0 0.00 0.00 0.00 78 1009.2
20260508145025 40 40 4.0 6.0 0.00 0.00 0.00 78 1009.0
20260508144525 40 40 3.0 5.0 0.00 0.00 0.00 78 1009.1
20260508144506 40 40 3.0 5.0 0.00 0.00 0.00 77 1008.2
20260508144026 40 40 3.0 6.0 0.00 0.00 0.00 78 1009.2
20260508143525 40 40 3.0 7.0 0.00 0.00 0.00 79 1009.1
20260508143014 40 40 5.0 7.0 0.00 0.00 0.00 78 1009.1
20260508143009 40 40 5.0 8.0 0.00 0.00 0.00 77 1008.2
20260508142515 40 34 5.0 7.0 0.00 0.00 0.00 76 1009.1
20260508142014 40 40 4.0 7.0 0.00 0.00 0.00 76 1009.2
20260508141526 40 31 5.0 7.0 0.00 0.00 0.00 76 1009.2
20260508141512 40 31 4.0 8.0 0.00 0.00 0.00 76 1008.4
20260508141036 40 32 6.0 7.0 0.00 0.00 0.00 75 1009.3
20260508140537 41 33 4.0 6.0 0.00 0.00 0.00 73 1009.3
20260508140014 41 33 5.0 6.0 0.00 0.00 0.00 71 1009.3
20260508140006 41 33 4.0 6.0 0.00 0.00 0.00 71 1008.5
20260508135526 42 27 5.0 6.0 0.00 0.00 0.00 71 1009.3
20260508135015 43 27 3.0 7.0 0.00 0.00 0.00 69 1009.4
20260508134506 44 23 3.0 10.0 0.00 0.00 0.00 65 1008.7
20260508133515 44 261 8.0 13.0 0.00 0.00 0.00 64 1009.5
20260508133026 44 268 7.0 11.0 0.00 0.00 0.00 64 1009.5
20260508133008 44 260 7.0 12.0 0.00 0.00 0.00 64 1008.8
20260508132515 45 226 7.0 11.0 0.00 0.00 0.00 64 1009.6
20260508132015 45 250 6.0 17.0 0.00 0.00 0.00 65 1009.7
20260508131515 44 261 8.0 17.0 0.00 0.00 0.00 65 1009.7
20260508131513 44 246 8.0 18.0 0.00 0.00 0.00 65 1009.1
20260508131015 44 271 7.0 11.0 0.00 0.00 0.00 66 1009.7
20260508130514 43 200 6.0 10.0 0.00 0.00 0.00 67 1009.7
20260508130016 43 240 6.0 9.0 0.00 0.00 0.00 67 1009.0
20260508125515 42 214 5.0 8.0 0.00 0.00 0.00 68 1009.7
20260508125037 41 207 5.0 7.0 0.00 0.00 0.00 68 1009.8
20260508124521 41 229 3.0 8.0 0.00 0.00 0.00 68 1009.5
20260508124515 41 229 3.0 7.0 0.00 0.00 0.00 68 1009.9
20260508124015 41 225 4.0 7.0 0.00 0.00 0.00 68 1010.0
20260508123514 40 207 2.0 6.0 0.00 0.00 0.00 69 1010.0
20260508123015 40 209 3.0 6.0 0.00 0.00 0.00 68 1009.9
20260508123004 40 209 3.0 7.0 0.00 0.00 0.00 68 1009.3
20260508122526 40 250 4.0 6.0 0.00 0.00 0.00 69 1010.0
20260508122014 39 224 2.0 6.0 0.00 0.00 0.00 69 1009.9
20260508121509 39 229 3.0 8.0 0.00 0.00 0.00 69 1008.3
20260508121015 39 240 3.0 8.0 0.00 0.00 0.00 70 1009.9
20260508120548 39 240 4.0 8.0 0.00 0.00 0.00 70 1010.0
20260508120015 39 239 3.0 5.0 0.00 0.00 0.00 70 1010.0
20260508115014 38 234 3.0 6.0 0.00 0.00 0.00 70 1009.9
20260508114518 38 261 3.0 7.0 0.00 0.00 0.00 69 1008.6
20260508114515 38 245 3.0 6.0 0.00 0.00 0.00 70 1009.9
20260508114015 38 236 2.0 5.0 0.00 0.00 0.00 70 1009.8
20260508113024 37 205 3.0 6.0 0.00 0.00 0.00 70 1008.5
20260508113015 37 198 4.0 6.0 0.00 0.00 0.00 70 1009.7
20260508112515 37 215 3.0 6.0 0.00 0.00 0.00 70 1009.6
20260508112026 37 236 2.0 4.0 0.00 0.00 0.00 71 1009.6
20260508111526 37 225 2.0 4.0 0.00 0.00 0.00 71 1009.6
20260508111507 37 228 2.0 5.0 0.00 0.00 0.00 70 1008.5
20260508111026 36 204 3.0 5.0 0.00 0.00 0.00 71 1009.6
20260508110515 36 222 4.0 6.0 0.00 0.00 0.00 71 1009.5
20260508110037 36 196 4.0 6.0 0.00 0.00 0.00 71 1009.6
20260508110008 36 196 4.0 6.0 0.00 0.00 0.00 71 1008.9
20260508105548 36 198 4.0 5.0 0.00 0.00 0.00 71 1009.6
20260508105015 35 193 3.0 7.0 0.00 0.00 0.00 72 1009.5
20260508104548 35 198 4.0 7.0 0.00 0.00 0.00 72 1009.5
20260508104504 35 194 4.0 7.0 0.00 0.00 0.00 71 1008.4
20260508104014 35 219 4.0 7.0 0.00 0.00 0.00 72 1009.4
20260508103515 35 192 5.0 7.0 0.00 0.00 0.00 71 1009.4
20260508103015 35 195 5.0 7.0 0.00 0.00 0.00 71 1009.4
20260508103003 35 195 4.0 7.0 0.00 0.00 0.00 71 1008.0
20260508102537 35 204 4.0 6.0 0.00 0.00 0.00 71 1009.4
20260508102015 36 200 4.0 7.0 0.00 0.00 0.00 71 1009.3
20260508101506 36 205 4.0 8.0 0.00 0.00 0.00 70 1008.0
20260508101015 36 191 4.0 8.0 0.00 0.00 0.00 70 1009.3
20260508100514 36 194 4.0 8.0 0.00 0.00 0.00 70 1009.3
20260508100015 36 184 5.0 7.0 0.00 0.00 0.00 70 1009.3
20260508100013 36 184 5.0 8.0 0.00 0.00 0.00 69 1008.5
20260508095548 36 208 5.0 8.0 0.00 0.00 0.00 70 1009.4
20260508095037 36 187 4.0 8.0 0.00 0.00 0.00 70 1009.3
20260508094515 36 201 5.0 7.0 0.00 0.00 0.00 71 1009.4
20260508094502 36 185 5.0 8.0 0.00 0.00 0.00 70 1009.0
20260508094015 36 184 6.0 8.0 0.00 0.00 0.00 71 1009.3
20260508093515 36 189 5.0 8.0 0.00 0.00 0.00 71 1009.4
20260508093026 36 190 4.0 7.0 0.00 0.00 0.00 70 1009.4
20260508093004 36 190 3.0 8.0 0.00 0.00 0.00 70 1008.8
20260508092515 36 190 5.0 7.0 0.00 0.00 0.00 70 1009.4
20260508092026 36 190 5.0 7.0 0.00 0.00 0.00 70 1009.5